AZERSPACE 1

Last updated on Mon Oct 14 2024 00:02:39 GMT+0000 (Coordinated Universal Time)

1 39079U 13006B 24287.07341156 .00000132 00000+0 00000+0 0 9992 2 39079 0.0397 60.6813 0002290 169.1047 224.7800 1.00271338 42660
UTC large
Height (km)
Speed (km/s)
/
Latitude / Longitude
Inclination (degrees)
Orbital Period (minutes)
Azimuth
Elevation
Range (km)
Doppler Factor

Next 0 passes for location: London (51.5072 / 0.1276)

Sorry there are no passes over London.